Hourly Data Report for April 07, 2018

KENORA A
ONTARIO
Current Station Operator: NAVCAN

49°47'18.000" N
94°21'47.000" W
409.70 m
6034076
71850
YQK

Download Data

Hourly Data (April 2018)
Hourly Data Report for April 7, 2018
TIME
LST
Temp Definition
°C
Dew Point Definition
°C
Rel Hum Definition
%
Precip. Amount Definition
mm

Wind Dir Definition
10's deg

Wind Spd Definition
km/h
Visibility Definition
km
Stn Press Definition
kPa
Hmdx Definition


Wind Chill Definition


Weather Definition


00:00 -12.7 -19.2 58   31 16 32.2 97.01   -20 Clear
01:00 -13.2 -19.4 60   31 12 24.1 97.02   -20 LegendNANA
02:00 -13.6 -19.4 62   30 11 24.1 97.02   -20 LegendNANA
03:00 -14.1 -19.4 65   30 13 24.1 97.04   -21 Clear
04:00 -14.5 -19.2 68   30 15 24.1 97.06   -22 LegendNANA
05:00 -14.8 -19.2 70   31 12 24.1 97.06   -22 LegendNANA
06:00 -15.3 -19.4 71   31 11 24.1 97.09   -22 Mainly Clear
07:00 -14.6 -19.3 68   32 13 24.1 97.10   -22 LegendNANA
08:00 -13.1 -19.6 58   31 14 24.1 97.13   -20 LegendNANA
09:00 -11.3 -20.0 49   33 21 24.1 97.12   -20 Clear
10:00 -9.9 -20.2 44   31 22 24.1 97.12   -18 LegendNANA
11:00 -8.6 -20.3 39   32 17 24.1 97.09   -15 LegendNANA
12:00 -7.7 -19.5 38   33 17 24.1 97.05   -14 Mainly Clear
13:00 -6.4 -20.7 32   32 19 24.1 97.00   -13 LegendNANA
14:00 -5.4 -19.2 33   32 13 24.1 96.97   -11 LegendNANA
15:00 -4.7 -18.6 33   31 18 24.1 96.96   -11 Mainly Clear
16:00 -4.3 -18.9 31   29 16 24.1 96.92   -10 LegendNANA
17:00 -5.0 -18.4 35   35 18 24.1 96.90   -11 LegendNANA
18:00 -5.0 -19.2 32   30 14 24.1 96.88   -10 Mainly Clear
19:00 -6.2 -19.4 35   31 8 24.1 96.86   -10 LegendNANA
20:00 -7.5 -19.4 38   29 8 24.1 96.88   -12 LegendNANA
21:00 -8.4 -19.4 41   30 9 24.1 96.89   -13 Clear
22:00 -9.3 -19.3 45   32 9 24.1 96.91   -14 LegendNANA
23:00 -10.2 -18.8 50   31 9 24.1 96.93   -15 LegendNANA

Notes on Data Quality.

Legend

  • E = Estimated
  • M = Missing
  • NA = Not Available*
  • [empty] = Indicates an unobserved value
Date modified: